QPF
0.02 0.01 0.02 0.03 0.03 0.02 0.03 0.03 0.02 0.03 0.03 0.03 0.02 0.02 0.02 0.03 0.04 0.04 0.04 0.04 0.04 0.05 0.05 0.05 0.06 0.06 0.05 0.05 0.03 0.03 0.03 0.02 0.03 0.04 0.04 0.02 0.01 0.01 0.02 0.02 0.03 0.02 0.02
0.01 0.01 0.01 0.01 0.01 0.02 0.02 0.03 0.04 0.04 0.02 0.02 0.02 0.03 0.02 0.02 0.03 0.04 0.03 0.03 0.04 0.05 0.06 0.06 0.07 0.07 0.05 0.05 0.04 0.03 0.03 0.03 0.02 0.03 0.03 0.03 0.02 0.03 0.03 0.03 0.03 0.02 0.01
0.02 0.01 0.01 0.01 0.01 0.02 0.02 0.03 0.04 0.04 0.02 0.02 0.02 0.02 0.01 0.02 0.03 0.03 0.03 0.03 0.02 0.04 0.05 0.06 0.07 0.07 0.05 0.04 0.03 0.02 0.02 0.02 0.02 0.02 0.03 0.04 0.03 0.03 0.04 0.04 0.03 0.02 0.01
0.02 0.01 0.02 0.02 0.02 0.03 0.02 0.02 0.02 0.03 0.03 0.03 0.03 0.02 0.02 0.02 0.02 0.01 0.02 0.03 0.04 0.04 0.04 0.05 0.06 0.06 0.06 0.05 0.03 0.02 0.02 0.02 0.02 0.02 0.02 0.02 0.03 0.03 0.03 0.04 0.03 0.02 0.02
0.03 0.03 0.03 0.03 0.03 0.04 0.03 0.02 0.02 0.03 0.04 0.04 0.04 0.02 0.02 0.02 0.02 0.02 0.03 0.03 0.04 0.04 0.04 0.04 0.05 0.05 0.07 0.06 0.03 0.02 0.03 0.03 0.02 0.01 0.01 0.01 0.02 0.02 0.02 0.03 0.04 0.03 0.04
0.02 0.02 0.02 0.03 0.03 0.03 0.02 0.02 0.02 0.03 0.03 0.04 0.04 0.03 0.03 0.02 0.02 0.02 0.03 0.03 0.04 0.04 0.04 0.04 0.05 0.06 0.08 0.06 0.04 0.03 0.03 0.03 0.02 0.02 0.02 0.01 0.01 0.02 0.03 0.03 0.03 0.04 0.03
0.01 0.02 0.02 0.03 0.04 0.04 0.03 0.02 0.02 0.03 0.04 0.04 0.04 0.03 0.03 0.02 0.02 0.02 0.02 0.02 0.03 0.03 0.03 0.03 0.03 0.05 0.09 0.06 0.04 0.04 0.02 0.01 0.02 0.03 0.03 0.02 0.02 0.02 0.04 0.05 0.04 0.05 0.04
0.01 0.01 0.01 0.02 0.03 0.03 0.02 0.02 0.02 0.02 0.03 0.03 0.03 0.03 0.03 0.02 0.01 0.01 0.01 0.02 0.02 0.02 0.02 0.02 0.02 0.03 0.06 0.05 0.04 0.04 0.03 0.02 0.02 0.02 0.02 0.03 0.03 0.03 0.03 0.04 0.05 0.05 0.04
0.01 0.01 0.01 0.01 0.02 0.02 0.02 0.02 0.02 0.02 0.02 0.03 0.03 0.03 0.03 0.02 0.01 0.01 0.02 0.02 0.02 0.01 0.01 0.01 0.01 0.02 0.04 0.03 0.04 0.04 0.05 0.04 0.03 0.03 0.02 0.03 0.02 0.02 0.02 0.03 0.03 0.03 0.03
0.00 0.00 0.00 0.01 0.01 0.01 0.01 0.01 0.01 0.01 0.02 0.03 0.03 0.02 0.02 0.01 0.02 0.02 0.03 0.02 0.01 0.01 0.01 0.01 0.02 0.02 0.03 0.03 0.04 0.05 0.04 0.04 0.05 0.05 0.04 0.03 0.02 0.01 0.01 0.01 0.02 0.03 0.02
0.00 0.00 0.00 0.01 0.01 0.01 0.02 0.01 0.01 0.01 0.01 0.01 0.02 0.01 0.01 0.01 0.03 0.04 0.04 0.02 0.01 0.01 0.01 0.02 0.02 0.02 0.02 0.03 0.04 0.05 0.04 0.05 0.06 0.05 0.05 0.04 0.03 0.02 0.01 0.02 0.02 0.03 0.03
0.00 0.00 0.00 0.01 0.01 0.01 0.01 0.01 0.01 0.01 0.01 0.01 0.01 0.01 0.01 0.01 0.02 0.02 0.03 0.03 0.03 0.02 0.02 0.02 0.02 0.02 0.02 0.02 0.03 0.03 0.05 0.06 0.05 0.04 0.04 0.03 0.03 0.03 0.02 0.02 0.02 0.02 0.03
0.00 0.00 0.01 0.01 0.01 0.01 0.02 0.02 0.02 0.02 0.02 0.01 0.01 0.01 0.01 0.02 0.02 0.02 0.02 0.02 0.04 0.03 0.03 0.03 0.03 0.03 0.03 0.02 0.03 0.04 0.05 0.06 0.05 0.04 0.04 0.03 0.02 0.02 0.03 0.04 0.04 0.02 0.02
0.01 0.01 0.01 0.01 0.01 0.02 0.02 0.02 0.02 0.02 0.02 0.02 0.02 0.02 0.02 0.02 0.03 0.02 0.01 0.01 0.02 0.03 0.03 0.04 0.03 0.03 0.03 0.03 0.03 0.05 0.06 0.05 0.04 0.04 0.03 0.03 0.02 0.03 0.04 0.04 0.04 0.03 0.03
0.02 0.01 0.01 0.01 0.01 0.02 0.02 0.03 0.02 0.02 0.03 0.03 0.03 0.03 0.02 0.02 0.02 0.01 0.01 0.01 0.01 0.02 0.04 0.04 0.03 0.03 0.03 0.03 0.03 0.04 0.06 0.05 0.03 0.02 0.03 0.03 0.03 0.03 0.03 0.04 0.04 0.04 0.04
0.02 0.02 0.02 0.02 0.02 0.02 0.02 0.03 0.02 0.02 0.02 0.02 0.02 0.02 0.02 0.01 0.01 0.01 0.01 0.01 0.02 0.03 0.04 0.05 0.06 0.06 0.05 0.05 0.05 0.05 0.05 0.05 0.04 0.04 0.04 0.05 0.06 0.05 0.04 0.04 0.05 0.04 0.04
0.02 0.02 0.02 0.02 0.02 0.02 0.02 0.02 0.03 0.02 0.02 0.01 0.02 0.01 0.01 0.01 0.01 0.01 0.01 0.01 0.01 0.01 0.02 0.02 0.04 0.05 0.05 0.04 0.03 0.03 0.03 0.04 0.04 0.05 0.06 0.07 0.07 0.09 0.08 0.06 0.05 0.05 0.04
0.02 0.02 0.03 0.04 0.03 0.03 0.02 0.02 0.02 0.03 0.02 0.01 0.01 0.01 0.01 0.01 0.01 0.01 0.01 0.01 0.01 0.01 0.01 0.02 0.03 0.03 0.03 0.03 0.03 0.02 0.03 0.03 0.03 0.04 0.05 0.05 0.06 0.07 0.07 0.08 0.07 0.05 0.04
0.03 0.05 0.06 0.06 0.04 0.03 0.03 0.02 0.02 0.02 0.02 0.02 0.02 0.02 0.01 0.01 0.01 0.01 0.01 0.01 0.01 0.01 0.01 0.01 0.02 0.02 0.03 0.03 0.03 0.02 0.03 0.03 0.04 0.05 0.05 0.05 0.06 0.06 0.06 0.06 0.06 0.06 0.06
0.07 0.09 0.09 0.07 0.05 0.04 0.04 0.03 0.03 0.03 0.03 0.03 0.03 0.03 0.03 0.02 0.01 0.01 0.01 0.01 0.02 0.02 0.02 0.01 0.02 0.02 0.02 0.02 0.03 0.03 0.04 0.04 0.04 0.05 0.05 0.06 0.06 0.06 0.06 0.06 0.06 0.06 0.06
0.08 0.07 0.06 0.05 0.04 0.04 0.04 0.03 0.04 0.04 0.04 0.04 0.03 0.03 0.02 0.02 0.02 0.02 0.02 0.03 0.03 0.03 0.02 0.03 0.03 0.03 0.02 0.02 0.03 0.04 0.03 0.03 0.04 0.05 0.05 0.06 0.06 0.06 0.06 0.06 0.08 0.08 0.08
0.08 0.06 0.05 0.05 0.04 0.04 0.04 0.05 0.05 0.04 0.03 0.03 0.03 0.02 0.02 0.02 0.03 0.04 0.05 0.04 0.04 0.04 0.04 0.04 0.03 0.04 0.05 0.04 0.03 0.02 0.02 0.03 0.04 0.04 0.04 0.04 0.04 0.04 0.05 0.04 0.05 0.06 0.07
0.05 0.05 0.05 0.05 0.05 0.05 0.05 0.05 0.05 0.05 0.04 0.03 0.03 0.03 0.02 0.03 0.03 0.04 0.05 0.04 0.04 0.05 0.04 0.03 0.03 0.04 0.04 0.04 0.03 0.03 0.03 0.03 0.03 0.03 0.03 0.03 0.03 0.03 0.03 0.03 0.02 0.03 0.04
0.04 0.04 0.05 0.05 0.05 0.05 0.05 0.04 0.04 0.05 0.05 0.04 0.04 0.04 0.04 0.04 0.04 0.04 0.04 0.04 0.04 0.04 0.03 0.03 0.03 0.03 0.03 0.04 0.03 0.02 0.02 0.03 0.02 0.03 0.03 0.03 0.03 0.03 0.03 0.02 0.03 0.03 0.04
0.04 0.05 0.05 0.06 0.06 0.05 0.04 0.04 0.04 0.06 0.06 0.05 0.07 0.08 0.09 0.09 0.08 0.07 0.07 0.07 0.06 0.06 0.05 0.06 0.05 0.04 0.03 0.03 0.03 0.03 0.03 0.03 0.03 0.02 0.02 0.03 0.04 0.05 0.05 0.04 0.03 0.03 0.04
0.05 0.05 0.05 0.07 0.07 0.06 0.05 0.03 0.04 0.04 0.05 0.06 0.07 0.09 0.10 0.10 0.11 0.11 0.10 0.09 0.09 0.07 0.05 0.04 0.04 0.04 0.03 0.03 0.02 0.03 0.03 0.03 0.03 0.03 0.03 0.03 0.04 0.04 0.05 0.05 0.04 0.04 0.05
MSLP
1014.64 1015.01 1015.37 1015.69 1015.95 1016.13 1016.26 1016.33 1016.39 1016.44 1016.51 1016.61 1016.72 1016.83 1016.94 1017.02 1017.07 1017.09 1017.08 1017.06 1017.02 1016.99 1016.95 1016.91 1016.87 1016.80 1016.70 1016.56 1016.40 1016.21 1016.01 1015.82 1015.65 1015.52 1015.42 1015.37 1015.34 1015.34 1015.35 1015.37 1015.41 1015.46 1015.53
1014.38 1014.79 1015.19 1015.54 1015.83 1016.05 1016.20 1016.30 1016.38 1016.44 1016.52 1016.60 1016.71 1016.81 1016.91 1016.99 1017.04 1017.06 1017.06 1017.04 1017.01 1016.98 1016.96 1016.93 1016.89 1016.83 1016.75 1016.65 1016.51 1016.35 1016.18 1016.00 1015.83 1015.68 1015.55 1015.43 1015.33 1015.24 1015.16 1015.10 1015.05 1015.03 1015.05
1014.02 1014.47 1014.91 1015.30 1015.62 1015.88 1016.07 1016.21 1016.31 1016.41 1016.51 1016.61 1016.72 1016.82 1016.91 1016.98 1017.01 1017.02 1017.01 1016.98 1016.94 1016.91 1016.87 1016.85 1016.82 1016.78 1016.72 1016.65 1016.55 1016.42 1016.28 1016.13 1015.96 1015.80 1015.63 1015.47 1015.30 1015.14 1014.99 1014.84 1014.72 1014.63 1014.58
1013.57 1014.06 1014.52 1014.94 1015.29 1015.58 1015.82 1016.00 1016.16 1016.31 1016.44 1016.58 1016.71 1016.82 1016.91 1016.96 1016.97 1016.96 1016.91 1016.85 1016.79 1016.73 1016.68 1016.65 1016.62 1016.60 1016.57 1016.53 1016.46 1016.38 1016.27 1016.13 1015.99 1015.82 1015.64 1015.45 1015.25 1015.04 1014.83 1014.63 1014.45 1014.30 1014.18
1013.04 1013.56 1014.04 1014.47 1014.85 1015.16 1015.44 1015.67 1015.88 1016.09 1016.28 1016.46 1016.62 1016.75 1016.83 1016.87 1016.86 1016.81 1016.73 1016.63 1016.53 1016.44 1016.37 1016.32 1016.30 1016.28 1016.27 1016.26 1016.23 1016.17 1016.09 1015.99 1015.86 1015.71 1015.54 1015.34 1015.13 1014.91 1014.69 1014.46 1014.25 1014.05 1013.89
1012.47 1013.00 1013.48 1013.92 1014.30 1014.63 1014.92 1015.20 1015.46 1015.71 1015.96 1016.19 1016.38 1016.53 1016.63 1016.66 1016.62 1016.54 1016.42 1016.28 1016.14 1016.02 1015.93 1015.88 1015.85 1015.84 1015.85 1015.85 1015.84 1015.81 1015.76 1015.68 1015.58 1015.45 1015.29 1015.12 1014.93 1014.73 1014.51 1014.30 1014.08 1013.86 1013.67
1011.89 1012.41 1012.88 1013.30 1013.66 1013.99 1014.30 1014.59 1014.89 1015.19 1015.47 1015.74 1015.97 1016.14 1016.24 1016.27 1016.22 1016.11 1015.97 1015.80 1015.64 1015.50 1015.40 1015.34 1015.31 1015.31 1015.33 1015.34 1015.35 1015.33 1015.30 1015.23 1015.15 1015.04 1014.91 1014.77 1014.62 1014.46 1014.28 1014.09 1013.89 1013.68 1013.47
1011.31 1011.82 1012.26 1012.65 1012.99 1013.29 1013.59 1013.89 1014.20 1014.52 1014.84 1015.13 1015.38 1015.57 1015.68 1015.70 1015.65 1015.54 1015.38 1015.21 1015.04 1014.90 1014.81 1014.75 1014.73 1014.75 1014.77 1014.79 1014.80 1014.79 1014.76 1014.70 1014.62 1014.53 1014.42 1014.32 1014.20 1014.08 1013.95 1013.80 1013.64 1013.45 1013.24
1010.73 1011.22 1011.63 1011.99 1012.29 1012.57 1012.85 1013.14 1013.46 1013.78 1014.11 1014.42 1014.67 1014.87 1014.98 1015.01 1014.96 1014.85 1014.70 1014.54 1014.40 1014.28 1014.20 1014.17 1014.17 1014.20 1014.23 1014.25 1014.26 1014.24 1014.20 1014.13 1014.05 1013.96 1013.87 1013.78 1013.69 1013.61 1013.52 1013.41 1013.28 1013.12 1012.92
1010.14 1010.60 1010.99 1011.31 1011.59 1011.85 1012.12 1012.40 1012.71 1013.04 1013.36 1013.66 1013.92 1014.12 1014.23 1014.26 1014.22 1014.13 1014.00 1013.87 1013.76 1013.67 1013.63 1013.63 1013.65 1013.70 1013.73 1013.76 1013.76 1013.72 1013.66 1013.57 1013.48 1013.37 1013.28 1013.20 1013.13 1013.06 1013.00 1012.92 1012.82 1012.68 1012.51
1009.51 1009.95 1010.32 1010.63 1010.90 1011.16 1011.42 1011.71 1012.02 1012.34 1012.67 1012.96 1013.22 1013.40 1013.52 1013.55 1013.52 1013.45 1013.35 1013.25 1013.17 1013.13 1013.12 1013.15 1013.19 1013.25 1013.29 1013.31 1013.29 1013.24 1013.15 1013.04 1012.93 1012.81 1012.70 1012.62 1012.55 1012.49 1012.43 1012.37 1012.29 1012.17 1012.03
1008.81 1009.24 1009.60 1009.92 1010.21 1010.49 1010.78 1011.09 1011.41 1011.75 1012.07 1012.37 1012.62 1012.80 1012.91 1012.95 1012.93 1012.87 1012.79 1012.72 1012.67 1012.66 1012.67 1012.72 1012.78 1012.83 1012.87 1012.87 1012.84 1012.77 1012.66 1012.54 1012.40 1012.27 1012.16 1012.06 1011.99 1011.93 1011.88 1011.82 1011.74 1011.64 1011.51
1008.07 1008.49 1008.86 1009.21 1009.53 1009.86 1010.19 1010.54 1010.90 1011.26 1011.60 1011.91 1012.16 1012.33 1012.44 1012.48 1012.47 1012.42 1012.35 1012.30 1012.26 1012.26 1012.28 1012.33 1012.38 1012.42 1012.44 1012.42 1012.37 1012.28 1012.16 1012.03 1011.90 1011.77 1011.66 1011.57 1011.50 1011.44 1011.38 1011.32 1011.24 1011.15 1011.03
1007.33 1007.74 1008.13 1008.51 1008.88 1009.26 1009.66 1010.07 1010.48 1010.88 1011.25 1011.57 1011.83 1012.01 1012.12 1012.16 1012.15 1012.10 1012.04 1011.98 1011.94 1011.92 1011.93 1011.94 1011.97 1011.98 1011.97 1011.93 1011.86 1011.76 1011.65 1011.52 1011.41 1011.30 1011.22 1011.15 1011.09 1011.05 1010.99 1010.93 1010.85 1010.74 1010.62
1006.68 1007.07 1007.46 1007.87 1008.29 1008.74 1009.20 1009.66 1010.13 1010.58 1010.98 1011.33 1011.60 1011.79 1011.91 1011.95 1011.94 1011.89 1011.82 1011.74 1011.68 1011.63 1011.60 1011.57 1011.55 1011.52 1011.46 1011.40 1011.31 1011.22 1011.12 1011.03 1010.95 1010.89 1010.85 1010.83 1010.81 1010.78 1010.73 1010.67 1010.58 1010.45 1010.32
1006.23 1006.58 1006.96 1007.37 1007.83 1008.31 1008.82 1009.34 1009.85 1010.33 1010.77 1011.14 1011.43 1011.63 1011.76 1011.81 1011.80 1011.74 1011.66 1011.57 1011.48 1011.39 1011.31 1011.23 1011.16 1011.07 1010.98 1010.88 1010.79 1010.70 1010.63 1010.58 1010.56 1010.57 1010.59 1010.62 1010.64 1010.64 1010.61 1010.54 1010.43 1010.28 1010.10
1006.03 1006.33 1006.68 1007.08 1007.53 1008.03 1008.56 1009.10 1009.63 1010.13 1010.59 1010.97 1011.27 1011.49 1011.63 1011.68 1011.68 1011.63 1011.55 1011.44 1011.33 1011.21 1011.09 1010.96 1010.84 1010.71 1010.58 1010.47 1010.37 1010.30 1010.26 1010.26 1010.30 1010.36 1010.45 1010.53 1010.59 1010.62 1010.60 1010.51 1010.37 1010.18 1009.95
1006.15 1006.37 1006.67 1007.03 1007.45 1007.93 1008.44 1008.97 1009.49 1009.99 1010.44 1010.82 1011.12 1011.34 1011.48 1011.55 1011.56 1011.52 1011.45 1011.35 1011.23 1011.09 1010.95 1010.80 1010.65 1010.50 1010.35 1010.23 1010.14 1010.08 1010.08 1010.12 1010.20 1010.31 1010.44 1010.56 1010.65 1010.69 1010.65 1010.55 1010.36 1010.11 1009.82
1006.54 1006.70 1006.93 1007.23 1007.60 1008.03 1008.49 1008.98 1009.46 1009.91 1010.33 1010.68 1010.97 1011.18 1011.32 1011.40 1011.43 1011.41 1011.36 1011.28 1011.17 1011.05 1010.92 1010.77 1010.62 1010.47 1010.34 1010.22 1010.14 1010.11 1010.13 1010.19 1010.30 1010.44 1010.58 1010.70 1010.79 1010.81 1010.74 1010.59 1010.35 1010.04 1009.67
1007.14 1007.24 1007.41 1007.65 1007.95 1008.31 1008.71 1009.12 1009.53 1009.92 1010.28 1010.58 1010.83 1011.02 1011.15 1011.23 1011.27 1011.28 1011.26 1011.21 1011.15 1011.07 1010.98 1010.87 1010.76 1010.64 1010.53 1010.45 1010.39 1010.38 1010.41 1010.48 1010.59 1010.71 1010.84 1010.93 1010.97 1010.94 1010.82 1010.61 1010.31 1009.93 1009.50
1007.86 1007.92 1008.04 1008.22 1008.46 1008.75 1009.07 1009.39 1009.72 1010.03 1010.30 1010.53 1010.72 1010.87 1010.97 1011.04 1011.09 1011.12 1011.14 1011.14 1011.13 1011.12 1011.09 1011.05 1011.00 1010.94 1010.89 1010.85 1010.83 1010.84 1010.87 1010.93 1011.01 1011.10 1011.16 1011.19 1011.16 1011.06 1010.87 1010.59 1010.22 1009.79 1009.31
1008.59 1008.63 1008.73 1008.87 1009.06 1009.28 1009.52 1009.76 1009.99 1010.21 1010.39 1010.54 1010.65 1010.74 1010.80 1010.84 1010.88 1010.92 1010.97 1011.02 1011.07 1011.12 1011.17 1011.22 1011.25 1011.28 1011.30 1011.33 1011.35 1011.38 1011.42 1011.46 1011.50 1011.52 1011.51 1011.45 1011.32 1011.13 1010.86 1010.51 1010.09 1009.61 1009.10
1009.25 1009.30 1009.39 1009.51 1009.66 1009.83 1010.00 1010.17 1010.32 1010.44 1010.53 1010.58 1010.62 1010.63 1010.63 1010.63 1010.64 1010.68 1010.73 1010.81 1010.91 1011.03 1011.16 1011.29 1011.42 1011.54 1011.65 1011.75 1011.82 1011.89 1011.93 1011.95 1011.94 1011.89 1011.79 1011.64 1011.42 1011.13 1010.78 1010.37 1009.91 1009.42 1008.91
1009.79 1009.86 1009.96 1010.08 1010.21 1010.34 1010.46 1010.56 1010.63 1010.67 1010.68 1010.65 1010.59 1010.53 1010.46 1010.40 1010.37 1010.38 1010.42 1010.51 1010.64 1010.81 1011.00 1011.21 1011.43 1011.64 1011.83 1012.00 1012.14 1012.24 1012.30 1012.31 1012.26 1012.15 1011.98 1011.74 1011.43 1011.06 1010.64 1010.18 1009.70 1009.21 1008.73
1010.23 1010.32 1010.43 1010.54 1010.66 1010.76 1010.84 1010.89 1010.90 1010.87 1010.80 1010.70 1010.57 1010.42 1010.29 1010.16 1010.08 1010.04 1010.05 1010.13 1010.26 1010.45 1010.68 1010.95 1011.23 1011.52 1011.79 1012.03 1012.23 1012.38 1012.46 1012.47 1012.40 1012.25 1012.02 1011.72 1011.34 1010.91 1010.44 1009.95 1009.46 1008.99 1008.55
1010.59 1010.69 1010.79 1010.90 1010.99 1011.06 1011.11 1011.12 1011.08 1011.00 1010.88 1010.71 1010.52 1010.32 1010.11 1009.93 1009.78 1009.69 1009.66 1009.70 1009.81 1009.99 1010.24 1010.53 1010.86 1011.20 1011.53 1011.83 1012.09 1012.29 1012.40 1012.43 1012.36 1012.19 1011.92 1011.57 1011.15 1010.68 1010.18 1009.67 1009.17 1008.72 1008.31
Thickness
5758 5754 5751 5748 5746 5744 5741 5739 5737 5735 5733 5731 5729 5728 5727 5726 5724 5722 5723 5721 5720 5720 5719 5717 5716 5715 5716 5716 5715 5714 5713 5711 5705 5706 5708 5707 5703 5702 5702 5701 5702 5701 5701
5756 5751 5748 5745 5743 5741 5739 5736 5734 5732 5730 5728 5725 5723 5722 5721 5720 5718 5717 5717 5716 5715 5714 5713 5711 5711 5709 5709 5709 5708 5707 5705 5702 5698 5699 5700 5697 5696 5695 5695 5697 5698 5697
5754 5748 5745 5742 5740 5737 5735 5733 5731 5728 5726 5724 5722 5719 5718 5717 5715 5714 5713 5712 5712 5711 5710 5708 5707 5706 5703 5703 5702 5702 5702 5701 5698 5696 5694 5693 5692 5691 5689 5690 5692 5691 5693
5749 5745 5741 5738 5736 5734 5732 5729 5727 5724 5721 5719 5718 5716 5714 5712 5711 5710 5709 5707 5707 5706 5705 5704 5703 5701 5699 5697 5696 5695 5695 5693 5692 5691 5690 5689 5687 5686 5684 5684 5685 5686 5687
5744 5740 5737 5734 5732 5729 5727 5724 5722 5720 5718 5715 5712 5711 5709 5708 5708 5704 5703 5703 5701 5701 5700 5699 5698 5697 5695 5693 5693 5691 5689 5688 5687 5687 5686 5684 5682 5680 5680 5681 5680 5681 5682
5738 5735 5732 5730 5727 5724 5722 5720 5717 5715 5713 5710 5708 5706 5704 5705 5701 5697 5696 5697 5696 5695 5694 5694 5694 5692 5690 5687 5685 5684 5683 5682 5682 5681 5681 5680 5678 5678 5677 5676 5676 5675 5675
5734 5730 5727 5725 5722 5719 5718 5715 5712 5710 5707 5705 5703 5701 5699 5697 5694 5691 5689 5690 5691 5690 5689 5689 5690 5690 5686 5684 5681 5679 5678 5677 5675 5676 5676 5675 5675 5675 5672 5671 5670 5670 5671
5729 5725 5723 5720 5717 5714 5712 5710 5707 5705 5703 5701 5698 5696 5694 5692 5688 5686 5684 5685 5686 5686 5685 5685 5683 5683 5682 5678 5677 5676 5676 5675 5673 5671 5672 5672 5671 5670 5669 5668 5667 5666 5668
5724 5721 5719 5716 5713 5710 5707 5705 5703 5700 5698 5696 5694 5691 5689 5687 5683 5680 5677 5680 5681 5681 5681 5680 5679 5677 5674 5671 5670 5670 5670 5670 5669 5667 5667 5666 5664 5663 5663 5663 5663 5663 5663
5720 5718 5715 5712 5708 5706 5703 5701 5699 5696 5693 5692 5690 5688 5685 5683 5679 5675 5672 5676 5676 5677 5677 5676 5673 5671 5668 5665 5665 5665 5664 5665 5664 5663 5661 5660 5660 5660 5658 5658 5660 5659 5660
5716 5713 5710 5707 5703 5701 5698 5695 5693 5691 5689 5687 5684 5683 5681 5679 5675 5670 5667 5669 5670 5670 5672 5672 5671 5665 5662 5660 5659 5660 5659 5658 5659 5658 5658 5658 5659 5658 5658 5658 5657 5657 5656
5710 5707 5704 5701 5699 5698 5693 5690 5687 5685 5683 5681 5679 5677 5677 5675 5671 5667 5663 5661 5661 5662 5664 5665 5664 5658 5656 5654 5655 5654 5652 5651 5654 5654 5654 5655 5656 5657 5657 5656 5654 5653 5652
5702 5700 5698 5695 5693 5691 5688 5685 5682 5680 5680 5679 5676 5675 5673 5672 5668 5662 5659 5656 5654 5655 5657 5656 5653 5651 5650 5651 5649 5648 5647 5648 5649 5649 5650 5651 5653 5654 5653 5651 5649 5648 5647
5695 5693 5691 5689 5687 5685 5683 5682 5680 5678 5676 5674 5671 5669 5668 5666 5664 5660 5657 5654 5650 5650 5650 5649 5647 5645 5645 5645 5645 5644 5644 5645 5645 5645 5647 5648 5648 5648 5647 5648 5646 5645 5643
5689 5687 5686 5685 5683 5678 5677 5675 5674 5672 5670 5666 5665 5663 5661 5659 5655 5649 5647 5648 5647 5645 5641 5643 5645 5644 5644 5644 5643 5642 5641 5640 5640 5641 5641 5642 5642 5642 5642 5643 5641 5640 5639
5683 5682 5682 5680 5676 5674 5671 5669 5665 5663 5659 5657 5655 5652 5653 5650 5645 5642 5638 5637 5635 5633 5633 5638 5639 5639 5639 5639 5638 5638 5637 5636 5635 5635 5635 5636 5636 5636 5636 5637 5636 5635 5635
5677 5676 5675 5673 5670 5668 5666 5664 5661 5657 5653 5650 5648 5645 5642 5640 5637 5635 5632 5630 5628 5626 5630 5634 5634 5633 5633 5633 5633 5634 5633 5632 5631 5630 5631 5632 5632 5631 5630 5630 5630 5630 5629
5671 5669 5667 5666 5665 5663 5661 5659 5657 5655 5652 5650 5644 5639 5636 5634 5631 5629 5626 5624 5627 5626 5629 5630 5630 5628 5628 5628 5629 5629 5629 5628 5627 5627 5627 5627 5627 5627 5626 5625 5625 5625 5624
5665 5664 5662 5661 5659 5657 5655 5653 5652 5649 5648 5646 5643 5638 5632 5629 5625 5623 5620 5623 5625 5625 5626 5627 5626 5625 5624 5623 5623 5623 5622 5622 5622 5622 5622 5622 5622 5622 5622 5622 5621 5618 5619
5658 5655 5653 5653 5652 5650 5648 5646 5645 5643 5642 5640 5638 5636 5632 5629 5628 5625 5621 5621 5621 5621 5621 5621 5621 5620 5619 5619 5617 5617 5617 5617 5616 5617 5618 5618 5618 5618 5617 5617 5616 5616 5615
5653 5650 5646 5646 5646 5644 5642 5640 5638 5636 5635 5634 5633 5630 5623 5625 5625 5623 5621 5619 5618 5617 5616 5616 5616 5615 5614 5613 5613 5612 5612 5612 5612 5613 5613 5613 5613 5613 5612 5612 5611 5611 5610
5647 5645 5644 5642 5640 5637 5636 5635 5633 5631 5629 5628 5627 5625 5618 5620 5620 5619 5617 5616 5615 5613 5612 5611 5611 5610 5609 5609 5609 5608 5608 5608 5608 5608 5607 5608 5608 5608 5608 5608 5607 5606 5605
5641 5640 5639 5637 5635 5631 5630 5630 5628 5626 5625 5623 5622 5620 5617 5616 5615 5613 5611 5610 5609 5608 5608 5607 5605 5604 5604 5604 5605 5605 5604 5604 5604 5603 5602 5601 5602 5603 5603 5603 5603 5602 5602
5635 5634 5632 5631 5630 5629 5628 5626 5625 5623 5621 5619 5617 5615 5612 5610 5608 5607 5606 5605 5604 5603 5602 5602 5602 5601 5600 5599 5600 5600 5599 5598 5598 5597 5596 5596 5597 5598 5598 5598 5598 5598 5597
5630 5628 5627 5626 5626 5625 5624 5622 5621 5619 5617 5615 5613 5610 5608 5605 5604 5603 5601 5600 5599 5598 5597 5597 5597 5596 5595 5594 5594 5593 5592 5590 5589 5590 5590 5591 5592 5593 5593 5593 5593 5593 5593
5625 5625 5624 5623 5622 5621 5620 5618 5616 5615 5613 5611 5608 5605 5603 5602 5601 5599 5597 5596 5595 5593 5592 5591 5591 5591 5589 5589 5587 5586 5584 5583 5582 5582 5583 5585 5586 5587 5587 5588 5588 5588 5588